Weather History for Macon, GA

Change the Weather History Date:

Tuesday, July 23, 2013

  Actual Average Record
Temperature  
Mean Temperature 80 °F 82 °F  
Max Temperature 90 °F 93 °F 102 °F (1952)
Min Temperature 70 °F 71 °F 62 °F (1966)
Degree Days  
Heating Degree Days 0 0  
Month to date heating degree days 0 0  
Since 1 June heating degree days 0 0  
Since 1 July heating degree days 0 0  
Cooling Degree Days 15 17  
Month to date cooling degree days 333 385  
Year to date cooling degree days 939 1117  
Since 1 June cooling degree days 729 804  
Growing Degree Days 30 (Base 50)    
Moisture  
Dew Point 71 °F    
Average Humidity 76    
Maximum Humidity 100    
Minimum Humidity 52    
Precipitation  
Precipitation 0.18 in 0.15 in 2.75 in (1919)
Month to date precipitation 5.84 3.73  
Year to date precipitation 46.78 26.62  
Sea Level Pressure  
Sea Level Pressure 29.93 in    
Wind  
Wind Speed 7 mph (West)    
Max Wind Speed 28 mph    
Max Gust Speed 40 mph    
Visibility 10 miles    
Events Rain    
T = Trace of Precipitation, MM = Missing Value Source: NWS Daily Summary

Daily Weather History Graph

Daily Weather History Graph

Search for Another Location

Airport:

Trip Planner

Search our weather history database for the weather conditions in past years. The results will help you decide how hot, cold, wet, or windy it might be!

Date:

Astronomy

Jul. 23, 2013 Rise Set
Actual Time 6:42 AM EDT 8:39 PM EDT
Civil Twilight 6:15 AM EDT 9:06 PM EDT
Nautical Twilight 5:42 AM EDT 9:39 PM EDT
Astronomical Twilight 5:06 AM EDT 10:14 PM EDT
Moon 9:15 PM EDT (7/23) 7:43 AM EDT (7/23)
Length of Visible Light 14h 51m
Length of Day
13h 56m
Full, 99% of the Moon is Illuminated
Jul 23
Full
Jul 29
Last Quarter
Aug 6
New
Aug 14
First Quarter
Aug 20
Full

Hourly Weather History & Observations

Time (EDT) Temp. Heat Index Dew Point Humidity Pressure Visibility Wind Dir Wind Speed Gust Speed Precip Events Conditions
12:53 AM 73.9 °F - 71.1 °F 91% 29.96 in 10.0 mi West 9.2 mph - 0.01 in   Overcast
1:53 AM 73.0 °F - 70.0 °F 90% 29.95 in 10.0 mi West 6.9 mph - 0.01 in   Mostly Cloudy
2:53 AM 73.0 °F - 70.0 °F 90% 29.95 in 10.0 mi WSW 5.8 mph - N/A   Mostly Cloudy
3:53 AM 72.0 °F - 70.0 °F 93% 29.96 in 10.0 mi West 5.8 mph - N/A   Overcast
4:18 AM 71.6 °F - 69.8 °F 94% 29.97 in 10.0 mi SW 3.5 mph - N/A   Partly Cloudy
4:53 AM 71.1 °F - 70.0 °F 96% 29.96 in 10.0 mi WSW 4.6 mph - N/A   Scattered Clouds
5:41 AM 71.6 °F - 69.8 °F 94% 29.98 in 10.0 mi WSW 9.2 mph - N/A   Overcast
5:53 AM 71.1 °F - 70.0 °F 96% 29.97 in 10.0 mi WSW 8.1 mph - N/A   Mostly Cloudy
6:02 AM 71.6 °F - 69.8 °F 94% 29.99 in 10.0 mi West 8.1 mph - N/A   Mostly Cloudy
6:28 AM 71.6 °F - 69.8 °F 94% 29.99 in 10.0 mi West 8.1 mph - 0.01 in   Scattered Clouds
6:53 AM 71.1 °F - 69.1 °F 93% 29.98 in 10.0 mi WSW 4.6 mph - 0.01 in   Clear
7:03 AM 71.6 °F - 69.8 °F 94% 29.99 in 10.0 mi West 6.9 mph - N/A   Partly Cloudy
7:32 AM 71.6 °F - 69.8 °F 94% 29.99 in 10.0 mi West 8.1 mph - N/A   Mostly Cloudy
7:53 AM 73.0 °F - 70.0 °F 90% 29.98 in 10.0 mi WSW 5.8 mph - N/A   Mostly Cloudy
8:53 AM 75.0 °F - 71.1 °F 87% 29.98 in 10.0 mi West 9.2 mph - N/A   Overcast
9:53 AM 75.0 °F - 71.1 °F 87% 29.99 in 10.0 mi West 9.2 mph - N/A   Overcast
10:53 AM 77.0 °F - 72.0 °F 84% 29.98 in 10.0 mi WNW 10.4 mph - N/A   Overcast
11:53 AM 77.0 °F - 72.0 °F 84% 29.99 in 10.0 mi West 6.9 mph - N/A   Overcast
12:39 PM 80.6 °F 85.4 °F 73.4 °F 79% 29.99 in 10.0 mi WNW 6.9 mph - N/A   Overcast
12:53 PM 81.0 °F 86.2 °F 73.9 °F 79% 29.97 in 10.0 mi WNW 6.9 mph - N/A   Overcast
1:53 PM 84.0 °F 90.2 °F 73.0 °F 69% 29.93 in 10.0 mi WNW 5.8 mph - N/A   Mostly Cloudy
2:06 PM 84.2 °F 90.9 °F 73.4 °F 70% 29.93 in 10.0 mi NW 8.1 mph - N/A   Partly Cloudy
2:53 PM 88.0 °F 95.6 °F 73.0 °F 61% 29.91 in 10.0 mi Variable 6.9 mph - N/A   Partly Cloudy
3:53 PM 89.1 °F 94.1 °F 70.0 °F 53% 29.88 in 10.0 mi NW 6.9 mph - N/A   Mostly Cloudy
4:53 PM 88.0 °F 92.9 °F 70.0 °F 55% 29.86 in 10.0 mi WNW 5.8 mph - N/A   Partly Cloudy
5:53 PM 87.1 °F 90.6 °F 68.0 °F 53% 29.86 in 10.0 mi WNW 8.1 mph - N/A   Mostly Cloudy
6:53 PM 86.0 °F 90.1 °F 69.1 °F 57% 29.84 in 10.0 mi WNW 3.5 mph - N/A   Clear
7:53 PM 75.0 °F - 70.0 °F 84% 29.88 in 10.0 mi WSW 19.6 mph 40.3 mph N/A   Mostly Cloudy
8:53 PM 72.0 °F - 71.1 °F 97% 29.87 in 6.0 mi SW 4.6 mph - 0.07 in Rain Light Rain
9:53 PM 72.0 °F - 71.1 °F 97% 29.88 in 8.0 mi SW 4.6 mph - 0.07 in Rain Light Rain
10:29 PM 71.6 °F - 71.6 °F 100% 29.90 in 10.0 mi WSW 3.5 mph - 0.02 in   Mostly Cloudy
10:48 PM 71.6 °F - 71.6 °F 100% 29.90 in 10.0 mi WSW 4.6 mph - 0.02 in Rain Light Rain
10:49 PM 72.0 °F - 71.1 °F 97% 29.89 in 10.0 mi WSW 4.6 mph - 0.02 in Rain Light Rain
10:57 PM 71.6 °F - 71.6 °F 100% 29.90 in 10.0 mi Calm Calm - 0.00 in   Mostly Cloudy
11:12 PM 71.6 °F - 71.6 °F 100% 29.90 in 10.0 mi Calm Calm - 0.00 in   Scattered Clouds
11:21 PM 71.6 °F - 71.6 °F 100% 29.90 in 10.0 mi WNW 3.5 mph - 0.00 in   Mostly Cloudy
11:53 PM 72.0 °F - 71.1 °F 97% 29.87 in 10.0 mi WNW 4.6 mph - 0.00 in   Scattered Clouds